Regional Weather Roundup
Issued by NWS Albany, NY

Home | Current Version | Previous Version | Text Only | Print | Product List | Glossary On
Versions: 1 2 3 4 5 6 7 8 9 10 11 12 13 14 15 16 17 18 19 20 21 22 23 24 25 26 27
000
ASUS41 KALY 270510
RWRALY

NEW YORK STATE HOURLY WEATHER ROUNDUP
NATIONAL WEATHER SERVICE ALBANY NY
100 AM EDT THU APR 27 2017

NOTE: "FAIR" INDICATES FEW OR NO CLOUDS BELOW 12,000 FEET WITH NO
SIGNIFICANT WEATHER AND/OR NO OBSTRUCTIONS TO VISIBILITY.

NYZ032-033-038>043-046>054-057>066-NYZ062>081-082-084-270600-
EAST


CITY           SKY/WX    TMP DP  RH WIND       PRES   REMARKS
ALBANY         MOCLDY    60  53  77 S6        29.84S
GLENS FALLS    CLOUDY    60  53  77 CALM      29.83S
POUGHKEEPSIE   CLOUDY    58  56  93 CALM      29.84R
NEWBURGH       CLOUDY    57  57 100 CALM      29.86S
MONTGOMERY     CLOUDY    58  56  93 CALM      29.84R FOG
WHITE PLAINS   CLOUDY    58  56  93 CALM      29.84S
ISLIP          CLOUDY    55  54  96 CALM      29.84S
NEW YORK CITY  DRZL/FOG  57  55  93 CALM      29.85R VSB 1/2
CENTRAL PARK   FOG       59  58  96 CALM      29.87S VSB 1
$$

NYZ005>009-017-018-044>046-055-056-270600-
CENTRAL


CITY           SKY/WX    TMP DP  RH WIND       PRES   REMARKS
FULTON         CLEAR     62  55  77 VRB7      29.74S
SYRACUSE       PTCLDY    58  56  93 E6        29.74S
ROME           CLEAR     59  55  87 E7        29.79S
ELMIRA         CLEAR     55  51  86 CALM      29.76S
BINGHAMTON     CLEAR     57  54  89 S8        29.81R
MONTICELLO     CLOUDY    55  55 100 SW3       29.87S VSB 3/4
$$

NYZ026>034-041>043-087-270600-
NORTH


CITY           SKY/WX    TMP DP  RH WIND       PRES   REMARKS
WATERTOWN      CLEAR     52  52 100 NE3       29.74S
FORT DRUM      NOT AVBL
OGDENSBURG     FAIR      54  53  95 CALM      29.78R FOG
MASSENA        FOG       54  54 100 E12       29.79F VSB 3/4
SARANAC LAKE   FOG       45  45 100 CALM      29.81F VSB 3/4
PLATTSBURGH    CLEAR     53  50  89 SE5       29.82S
$$

NYZ001>004-010>016-019>021-085-270600-
WEST


CITY           SKY/WX    TMP DP  RH WIND       PRES   REMARKS
NIAGARA FALLS  CLEAR     55  49  80 S3        29.68F
BUFFALO        PTCLDY    60  54  80 S5        29.70S
DUNKIRK        CLEAR     54  52  93 CALM      29.69F
JAMESTOWN      CLOUDY    61  52  72 S8        29.74S
WELLSVILLE     CLEAR     64  54  69 S7        29.79R
ROCHESTER      PTCLDY    61  56  83 SE5       29.72R
PENN YAN       CLEAR     60  52  74 SW5       29.75R
$$

             KEY
       WCI = WIND CHILL INDEX
       VSB = VISIBILITY
       HX  = HEAT INDEX
$$




USA.gov is the U.S. government's official web portal to all federal, state and local government web resources and services.